Find Starlink 32587

NORAD ID: 62180 Int'l Des: 2024-225 Owner: SPXS Country: US Constellation: starlink operational
LEOCIRCULAR

实时位置

正在加载3D地球...

关于 Starlink 32587

正在加载描述...

即将过境

Passes for default location (London). Set your location on the main map for personalized predictions.

高度历史

Loading altitude history...

两行轨道根数

1 62180U 24225T 26125.41059602 .00007396 00000-0 62678-3 0 9992
2 62180 70.0038 21.2579 0002693 275.0605 85.0247 14.98343510 78377
Epoch: May 5, 2026 • Age: 10 hours

当前状态

高度 575.3 km
速度 7.57 km/s
星下点 -5.88°S, 34.15°E
发射日期 Nov 30, 2024
运行时间 1.4 years
类型 internet

技术详情

分类 Payload
质量 730.00 kg
干质量 700.00 kg
总质量 730.00 kg
长度 0.30 m
直径 4.10 m
跨度 29.00 m
形状 Box + pan
制造商 SPXS
平台类型 Starlink V2M
阶段状态 In Orbit
所有者/国家 SPXS/US

Most Searched